This is the latest recevied weather packets stored in our database for station/object W5CRT. If no packets are shown the sender has not sent any weather packets the latest 1 day(s).
| Time | Temp. | Humidity | Pressure | Rain* | Wind** | Luminosity | Snow |
|---|---|---|---|---|---|---|---|
| 1778021965 | 31.11° C | 61% | 1002.7 hPa | 0 mm | 2.68 m/s, 153° | 215 W/m² | - |
| 1778021662 | 30.56° C | 62% | 1002.7 hPa | 0 mm | 2.24 m/s, 159° | 427 W/m² | - |
| 1778021358 | 30.56° C | 63% | 1002.7 hPa | 0 mm | 0.89 m/s, 189° | 249 W/m² | - |
| 1778021055 | 30.56° C | 63% | 1002.6 hPa | 0 mm | 1.34 m/s, 203° | 235 W/m² | - |
| 1778020752 | 30.56° C | 61% | 1002.5 hPa | 0 mm | 1.34 m/s, 212° | 224 W/m² | - |
| 1778020449 | 31.67° C | 60% | 1002.2 hPa | 0 mm | 1.79 m/s, 238° | 189 W/m² | - |
| 1778020145 | 31.67° C | 58% | 1002.1 hPa | 0 mm | 1.79 m/s, 164° | 199 W/m² | - |
| 1778019842 | 31.67° C | 57% | 1002.2 hPa | 0 mm | 1.79 m/s, 149° | 587 W/m² | - |
| 1778019538 | 31.67° C | 58% | 1002.3 hPa | 0 mm | 0.89 m/s, 170° | 308 W/m² | - |
| 1778019235 | 31.67° C | 57% | 1002.3 hPa | 0 mm | 1.79 m/s, 174° | 482 W/m² | - |
| 1778018932 | 32.22° C | 57% | 1002.5 hPa | 0 mm | 0.89 m/s, 156° | 624 W/m² | - |
| 1778018629 | 31.67° C | 57% | 1002.5 hPa | 0 mm | 1.79 m/s, 180° | 619 W/m² | - |
| 1778018327 | 31.67° C | 58% | 1002.4 hPa | 0 mm | 0.89 m/s, 181° | 538 W/m² | - |
| 1778018025 | 31.67° C | 57% | 1002.5 hPa | 0 mm | 0.89 m/s, 203° | 586 W/m² | - |
| 1778017723 | 31.67° C | 57% | 1002.7 hPa | 0 mm | 1.79 m/s, 172° | 707 W/m² | - |
| 1778017420 | 32.22° C | 57% | 1002.6 hPa | 0 mm | 1.34 m/s, 196° | 729 W/m² | - |
| 1778017117 | 31.11° C | 58% | 1002.4 hPa | 0 mm | 0.89 m/s, 184° | 737 W/m² | - |
| 1778016815 | 31.67° C | 57% | 1002.6 hPa | 0 mm | 1.34 m/s, 179° | 255 W/m² | - |
| 1778016511 | 31.67° C | 57% | 1002.5 hPa | 0 mm | 2.24 m/s, 237° | 702 W/m² | - |
| 1778016208 | 31.67° C | 56% | 1002.8 hPa | 0 mm | 2.68 m/s, 156° | 820 W/m² | - |
| 1778015904 | 31.67° C | 57% | 1002.8 hPa | 0 mm | 2.24 m/s, 200° | 800 W/m² | - |
| 1778015602 | 31.11° C | 59% | 1002.8 hPa | 0 mm | 1.34 m/s, 161° | 820 W/m² | - |
| 1778015298 | 31.11° C | 60% | 1002.8 hPa | 0 mm | 0.89 m/s, 180° | 846 W/m² | - |
| 1778014995 | 31.11° C | 59% | 1002.7 hPa | 0 mm | 2.68 m/s, 217° | 802 W/m² | - |
| 1778014692 | 31.11° C | 59% | 1002.8 hPa | 0 mm | 1.79 m/s, 189° | 913 W/m² | - |
* Rain latest hour (hover to see other rain measurements)
** Current wind speed in m/s (hover to see current wind gust speed)